Stations météo

réclame
Mon MeteoGroup
Lechfeld, Allemagne (10856): Température de l'air & dewpoint: 13.06.2019 18:00:00 - 19.06.2019 18:00:00 (CEST)Lechfeld, Allemagne (10856): Vitesse du vent & gusts: 13.06.2019 18:00:00 - 19.06.2019 18:00:00 (CEST)Lechfeld, Allemagne (10856): Direction du vent: 13.06.2019 18:00:00 - 19.06.2019 18:00:00 (CEST)Lechfeld, Allemagne (10856): reduced air pressure: 13.06.2019 18:00:00 - 19.06.2019 18:00:00 (CEST)Lechfeld, Allemagne (10856): visibility: 13.06.2019 18:00:00 - 19.06.2019 18:00:00 (CEST)
Date & Time tt [°C] td [°C] ff [km/h] ff [knt] fx [km/h] fx [knt] dd ppp [hPa] vv [km]
19.06.2019 18:00:00 28,9 8,5 7 4 - - W 1007,4 75
19.06.2019 17:00:00 28,4 9,0 8 4 - - SSW 1007,8 10
19.06.2019 16:00:00 28,2 9,8 14 8 - - SW 1008,4 75
19.06.2019 15:00:00 27,6 10,5 11 6 - - S 1009,0 60
19.06.2019 14:00:00 27,1 10,8 7 4 - - SSW 1009,6 60
19.06.2019 13:00:00 26,1 12,0 11 6 - - SW 1010,1 60
19.06.2019 12:00:00 25,2 12,0 11 6 - - W 1010,5 60
19.06.2019 11:00:00 24,1 12,3 7 4 - - W 1010,7 60
19.06.2019 10:00:00 23,1 12,7 7 4 - - SSE 1011,0 70
19.06.2019 09:00:00 20,0 14,5 7 4 - - S 1012,0 75
19.06.2019 08:00:00 17,3 13,9 4 2 - - N 1012,8 75
19.06.2019 07:00:00 15,5 13,3 7 4 - - SSE 1013,1 70
19.06.2019 06:00:00 14,9 12,5 7 4 - - SSE 1013,0 60
19.06.2019 05:00:00 14,8 12,7 7 4 - - SSE 1013,2 60
19.06.2019 04:00:00 16,2 12,2 7 4 - - S 1013,3 60
19.06.2019 03:00:00 16,8 12,6 7 4 - - SW 1013,4 60
19.06.2019 02:00:00 17,7 12,2 29 16 - - S 1012,8 60
19.06.2019 01:00:00 17,5 13,2 29 16 47 25 S 1014,0 60
19.06.2019 00:00:00 19,3 13,6 22 12 - - SSW 1014,4 40
18.06.2019 23:00:00 20,5 13,8 7 4 - - S 1013,3 40
18.06.2019 22:00:00 20,1 14,7 4 2 - - S 1012,9 40
18.06.2019 21:00:00 23,0 14,0 7 4 - - NNW 1012,0 40
18.06.2019 20:00:00 24,4 14,4 7 4 - - N 1011,9 40
18.06.2019 19:00:00 25,9 14,1 14 8 - - N 1011,2 40
18.06.2019 18:00:00 26,7 13,2 7 4 - - N 1010,9 40
18.06.2019 17:00:00 26,8 12,1 11 6 - - N 1011,3 35
18.06.2019 16:00:00 26,6 11,8 7 4 - - W 1011,9 35
18.06.2019 15:00:00 26,2 12,7 7 4 - - NW 1012,4 35
18.06.2019 14:00:00 25,2 12,4 11 6 - - SSW 1013,1 35
18.06.2019 13:00:00 24,7 14,6 7 4 - - E 1013,8 30
18.06.2019 12:00:00 22,9 14,2 7 4 - - W 1014,5 20
18.06.2019 11:00:00 22,9 14,8 7 4 - - WSW 1014,6 20
18.06.2019 10:00:00 21,0 14,4 4 2 - - N 1015,1 18
18.06.2019 09:00:00 18,9 14,2 4 2 - - NE 1015,7 15
18.06.2019 08:00:00 17,0 13,7 4 2 - - N 1016,3 15
18.06.2019 07:00:00 14,1 13,6 4 2 - - S 1016,7 10
18.06.2019 06:00:00 11,0 10,7 4 2 - - S 1017,4 12
18.06.2019 05:00:00 11,3 10,9 4 2 - - WNW 1017,3 20
18.06.2019 04:00:00 12,0 11,3 4 2 - - N 1017,1 20
18.06.2019 03:00:00 12,8 12,0 4 2 - - NNW 1017,0 20
18.06.2019 02:00:00 14,8 12,8 4 2 - - NNW 1017,1 20
18.06.2019 01:00:00 15,3 12,6 7 4 - - NNE 1017,2 30
18.06.2019 00:00:00 15,8 13,1 7 4 - - E 1017,0 30
17.06.2019 23:00:00 16,6 13,2 4 2 - - ENE 1016,9 30
17.06.2019 22:00:00 17,9 13,1 7 4 - - NE 1016,7 30
17.06.2019 21:00:00 20,2 13,4 11 6 - - NE 1015,8 40
17.06.2019 20:00:00 22,3 13,3 14 8 - - ENE 1015,4 40
17.06.2019 19:00:00 23,2 13,2 18 10 - - ENE 1015,1 40
17.06.2019 18:00:00 23,4 13,5 22 12 - - NE 1015,3 40
17.06.2019 17:00:00 23,2 13,5 18 10 - - NE 1015,8 40
17.06.2019 16:00:00 23,3 14,1 22 12 - - NE 1016,2 40
17.06.2019 15:00:00 21,8 13,4 22 12 - - NE 1017,1 40
17.06.2019 14:00:00 22,5 14,4 22 12 - - NE 1017,1 40
17.06.2019 13:00:00 20,8 13,0 18 10 - - NE 1017,8 40
17.06.2019 12:00:00 20,0 13,3 18 10 - - NE 1018,4 25
17.06.2019 11:00:00 19,8 14,0 18 10 - - ENE 1018,8 20
17.06.2019 10:00:00 18,4 13,9 18 10 - - NE 1019,6 15
17.06.2019 09:00:00 16,3 14,1 11 6 - - ENE 1020,6 10
17.06.2019 08:00:00 13,6 13,4 5 3 - - NE 1021,5 4,0
17.06.2019 07:00:00 10,9 10,7 4 2 - - N 1022,4 0,1
17.06.2019 06:00:00 10,7 10,5 4 2 - - NW 1022,3 0,3
17.06.2019 05:00:00 10,4 10,2 4 2 - - NNE 1022,4 0,6
17.06.2019 04:00:00 9,3 9,0 9 5 - - ESE 1022,6 3,0
17.06.2019 03:00:00 12,3 11,8 7 4 - - WNW 1021,9 30
17.06.2019 02:00:00 11,2 10,6 4 2 - - E 1022,9 40
17.06.2019 01:00:00 11,9 11,5 4 2 - - ESE 1022,9 40
17.06.2019 00:00:00 14,2 12,8 0 0 - - N 1022,5 40
16.06.2019 23:00:00 15,6 13,3 4 2 - - N 1022,4 60
16.06.2019 22:00:00 16,5 13,5 7 4 - - NNW 1021,9 60
16.06.2019 21:00:00 16,9 13,2 7 4 - - N 1021,4 60
16.06.2019 20:00:00 18,0 12,6 11 6 - - NNW 1021,2 60
16.06.2019 19:00:00 18,5 12,0 11 6 - - NW 1020,8 60
16.06.2019 18:00:00 19,3 11,9 14 8 - - NW 1020,3 60
16.06.2019 17:00:00 19,7 12,4 14 8 - - NNW 1020,1 60
16.06.2019 16:00:00 19,3 12,6 11 6 - - NW 1020,3 40
16.06.2019 15:00:00 19,3 12,7 11 6 - - WNW 1020,2 40
16.06.2019 14:00:00 18,3 11,8 11 6 - - WNW 1020,9 40
16.06.2019 13:00:00 18,6 11,6 14 8 - - WSW 1020,8 40
16.06.2019 12:00:00 18,1 12,0 11 6 - - W 1020,9 12
16.06.2019 11:00:00 16,4 11,5 11 6 - - W 1021,2 14
16.06.2019 10:00:00 15,2 11,7 14 8 - - WSW 1021,2 13
16.06.2019 09:00:00 14,4 12,2 14 8 - - WSW 1021,2 11
16.06.2019 08:00:00 13,7 12,0 11 6 - - SW 1020,9 12
16.06.2019 07:00:00 13,4 12,1 11 6 - - WSW 1020,4 11
16.06.2019 06:00:00 13,2 12,0 7 4 - - SW 1020,0 12
16.06.2019 05:00:00 13,2 12,2 11 6 - - SW 1019,8 9
16.06.2019 04:00:00 13,3 12,1 11 6 - - SW 1019,5 11
16.06.2019 03:00:00 13,6 12,6 14 8 - - SSW 1019,5 10
16.06.2019 02:00:00 13,7 13,2 18 10 - - SSW 1019,1 7
16.06.2019 01:00:00 13,7 13,2 18 10 - - SW 1019,4 3,1
16.06.2019 00:00:00 14,5 13,2 36 19 61 33 SW 1017,8 0,6
15.06.2019 23:00:00 16,3 14,6 7 4 - - NNW 1015,6 11
15.06.2019 22:00:00 18,3 14,4 7 4 - - NW 1014,7 6
15.06.2019 21:00:00 20,6 13,1 14 8 - - N 1013,1 13
15.06.2019 20:00:00 21,4 13,5 14 8 - - N 1013,5 12
15.06.2019 19:00:00 22,1 12,9 11 6 - - NNW 1013,4 8
15.06.2019 18:00:00 22,4 13,8 11 6 - - NNW 1013,6 12
15.06.2019 17:00:00 22,0 14,1 11 6 - - NW 1013,8 13
15.06.2019 16:00:00 23,1 14,1 11 6 - - NW 1013,7 14
15.06.2019 15:00:00 23,7 13,8 14 8 - - WNW 1013,5 13
15.06.2019 14:00:00 23,5 13,9 7 4 - - WSW 1013,6 11
15.06.2019 13:00:00 23,0 13,4 14 8 - - WSW 1013,8 13
15.06.2019 12:00:00 22,6 13,6 14 8 - - WSW 1013,5 12
15.06.2019 11:00:00 21,3 12,7 14 8 - - SW 1013,9 14
15.06.2019 10:00:00 21,8 12,3 22 12 - - WSW 1013,2 17
15.06.2019 09:00:00 21,4 12,6 25 14 - - SW 1012,5 15
15.06.2019 08:00:00 21,3 12,0 25 14 - - SW 1011,2 15
15.06.2019 07:00:00 19,5 14,7 14 8 - - S 1010,3 13
15.06.2019 06:00:00 17,4 13,9 11 6 - - SW 1009,7 9
15.06.2019 05:00:00 15,7 14,7 11 6 - - SSE 1009,4 11
15.06.2019 04:00:00 15,7 14,0 7 4 - - SSE 1010,1 11
15.06.2019 03:00:00 17,3 14,7 7 4 - - SSE 1010,5 13
15.06.2019 02:00:00 17,7 14,8 11 6 - - S 1010,4 14
15.06.2019 01:00:00 19,0 14,8 7 4 - - S 1010,3 12
15.06.2019 00:00:00 20,5 14,7 11 6 - - SW 1010,5 13
14.06.2019 23:00:00 21,5 14,6 7 4 - - WNW 1010,2 14
14.06.2019 22:00:00 23,5 14,3 11 6 - - N 1009,9 14
14.06.2019 21:00:00 24,6 14,4 7 4 - - N 1009,9 23
14.06.2019 20:00:00 25,8 14,7 14 8 - - N 1010,1 40
14.06.2019 19:00:00 27,2 15,6 11 6 - - NNE 1010,8 40
14.06.2019 18:00:00 27,0 14,2 14 8 - - NNE 1011,3 40
14.06.2019 17:00:00 27,7 14,2 18 10 - - N 1011,8 40
14.06.2019 16:00:00 27,2 15,8 14 8 - - N 1012,3 40
14.06.2019 15:00:00 26,8 14,8 14 8 - - NNE 1013,2 40
14.06.2019 14:00:00 27,6 14,8 14 8 - - NNE 1013,2 40
14.06.2019 13:00:00 26,7 14,3 18 10 - - NE 1013,6 50
14.06.2019 12:00:00 25,5 13,8 18 10 - - E 1013,8 50
14.06.2019 11:00:00 24,1 14,2 18 10 - - E 1014,1 50
14.06.2019 10:00:00 22,2 14,4 18 10 - - E 1014,5 50
14.06.2019 09:00:00 20,5 13,9 14 8 - - E 1015,2 50
14.06.2019 08:00:00 16,3 13,2 7 4 - - ENE 1016,1 50
14.06.2019 07:00:00 13,4 11,7 4 2 - - NNE 1017,1 50
14.06.2019 06:00:00 11,1 10,7 4 2 - - SW 1018,3 30
14.06.2019 05:00:00 9,1 8,6 7 4 - - S 1018,3 30
14.06.2019 04:00:00 10,9 10,2 4 2 - - SW 1018,1 30
14.06.2019 03:00:00 10,0 9,3 7 4 - - SSE 1018,3 30
14.06.2019 02:00:00 11,3 10,3 4 2 - - SSW 1018,3 30
14.06.2019 01:00:00 12,1 11,0 4 2 - - S 1017,9 30
14.06.2019 00:00:00 13,1 11,1 7 4 - - SSE 1017,4 30
13.06.2019 23:00:00 14,9 11,6 4 2 - - ENE 1016,7 30
13.06.2019 22:00:00 16,7 11,0 4 2 - - SSE 1015,9 50
13.06.2019 21:00:00 21,0 10,1 7 4 - - S 1014,3 50
13.06.2019 20:00:00 22,3 10,0 4 2 - - N 1013,2 50
13.06.2019 19:00:00 23,1 8,0 4 2 - - WNW 1012,6 50
13.06.2019 18:00:00 23,0 8,2 7 4 - - N 1012,4 50

tt = Température de l'air
td = dewpoint
ff = Vitesse du vent
fx = gusts
dd = Direction du vent
ppp = reduced air pressure
vv = visibility

stations d'obs. à proximité